When you browse on this site, cookies collect data to enhance your experience and personalize the content and advertising you see.
Visit our Privacy Policy to learn more. By continuing to use the site, you agree to this use of cookies and data.
  • In Deutschland
  • Länderverzeichnis
  • Für 7 Tage
  • Wassertemperatur
  • Satellitenkarten
  • Wetterkarte
  • Widgets
  • user-avatar
    Anmelden

    Stündliche Wetter Krzywica

    Heute, 20 Mai, Montag

    Zeit Temperatur Niederschläge Wind Luftdruck Luftfeuchtigkeit
    00:00 +17°C° 0 mm 3 m/S 747 mmHg 94%
    01:00 +16°C° 0 mm 3 m/S 747 mmHg 95%
    02:00 +16°C° 0 mm 3 m/S 747 mmHg 95%
    03:00 +15°C° 0 mm 4 m/S 746 mmHg 96%
    04:00 +15°C° 0 mm 4 m/S 746 mmHg 96%
    05:00 +17°C° 0 mm 4 m/S 746 mmHg 94%
    06:00 +17°C° 0 mm 5 m/S 746 mmHg 91%
    07:00 +19°C° 0 mm 5 m/S 746 mmHg 89%
    08:00 +20°C° 0 mm 6 m/S 746 mmHg 86%
    09:00 +21°C° 0 mm 6 m/S 746 mmHg 83%
    10:00 +22°C° 0 mm 6 m/S 746 mmHg 80%
    11:00 +23°C° 0 mm 6 m/S 746 mmHg 76%
    12:00 +24°C° 0 mm 6 m/S 745 mmHg 72%
    13:00 +27°C° 0 mm 6 m/S 745 mmHg 67%
    14:00 +26°C° 0.7 mm 6 m/S 745 mmHg 69%
    15:00 +26°C° 0.7 mm 6 m/S 745 mmHg 71%
    16:00 +25°C° 0.7 mm 5 m/S 744 mmHg 72%
    17:00 +23°C° 1.1 mm 5 m/S 744 mmHg 75%
    18:00 +22°C° 1.1 mm 4 m/S 744 mmHg 78%
    19:00 +21°C° 1.1 mm 4 m/S 744 mmHg 81%
    20:00 +20°C° 0.7 mm 3 m/S 744 mmHg 83%
    21:00 +19°C° 0.7 mm 3 m/S 745 mmHg 86%
    22:00 +18°C° 0.7 mm 3 m/S 745 mmHg 89%
    23:00 +18°C° 0.1 mm 3 m/S 745 mmHg 91%

    Morgen, 21 Mai, Dienstag

    Zeit Temperatur Niederschläge Wind Luftdruck Luftfeuchtigkeit
    00:00 +17°C° 0.1 mm 3 m/S 744 mmHg 92%
    01:00 +17°C° 0.1 mm 3 m/S 744 mmHg 94%
    02:00 +17°C° 0 mm 3 m/S 744 mmHg 94%
    03:00 +17°C° 0 mm 3 m/S 744 mmHg 95%
    04:00 +16°C° 0 mm 3 m/S 744 mmHg 95%
    05:00 +17°C° 0.2 mm 3 m/S 744 mmHg 92%
    06:00 +18°C° 0.2 mm 4 m/S 744 mmHg 90%
    07:00 +19°C° 0.2 mm 4 m/S 744 mmHg 87%
    08:00 +19°C° 0.1 mm 4 m/S 744 mmHg 87%
    09:00 +19°C° 0.1 mm 5 m/S 744 mmHg 87%
    10:00 +19°C° 0.1 mm 5 m/S 744 mmHg 87%
    11:00 +20°C° 0.1 mm 5 m/S 744 mmHg 81%
    12:00 +21°C° 0.1 mm 6 m/S 743 mmHg 76%
    13:00 +22°C° 0.1 mm 6 m/S 743 mmHg 71%
    14:00 +21°C° 0.5 mm 7 m/S 743 mmHg 71%
    15:00 +21°C° 0.5 mm 7 m/S 743 mmHg 72%
    16:00 +21°C° 0.5 mm 7 m/S 742 mmHg 73%
    17:00 +20°C° 0.1 mm 6 m/S 742 mmHg 76%
    18:00 +17°C° 0.1 mm 5 m/S 742 mmHg 79%
    19:00 +16°C° 0.1 mm 5 m/S 742 mmHg 82%
    20:00 +15°C° 0 mm 5 m/S 742 mmHg 85%
    21:00 +15°C° 0 mm 5 m/S 743 mmHg 88%
    22:00 +15°C° 0 mm 5 m/S 743 mmHg 91%
    23:00 +15°C° 0 mm 5 m/S 743 mmHg 90%

    übermorgen, 22 Mai, Mittwoch

    Zeit Temperatur Niederschläge Wind Luftdruck Luftfeuchtigkeit
    00:00 +15°C° 0 mm 5 m/S 743 mmHg 89%
    01:00 +15°C° 0 mm 6 m/S 743 mmHg 89%
    02:00 +14°C° 0.1 mm 5 m/S 743 mmHg 88%
    03:00 +14°C° 0.1 mm 5 m/S 743 mmHg 88%
    04:00 +14°C° 0.1 mm 5 m/S 744 mmHg 88%
    05:00 +14°C° 0 mm 5 m/S 744 mmHg 87%
    06:00 +15°C° 0 mm 5 m/S 744 mmHg 87%
    07:00 +15°C° 0 mm 5 m/S 744 mmHg 87%
    08:00 +16°C° 0 mm 5 m/S 744 mmHg 83%
    09:00 +17°C° 0 mm 5 m/S 744 mmHg 79%
    10:00 +19°C° 0 mm 5 m/S 745 mmHg 74%
    11:00 +20°C° 0.6 mm 5 m/S 745 mmHg 74%
    12:00 +20°C° 0.6 mm 5 m/S 744 mmHg 73%
    13:00 +20°C° 0.6 mm 5 m/S 744 mmHg 72%
    14:00 +20°C° 0.6 mm 5 m/S 744 mmHg 73%
    15:00 +20°C° 0.6 mm 5 m/S 744 mmHg 73%
    16:00 +20°C° 0.6 mm 5 m/S 744 mmHg 74%
    17:00 +19°C° 0.1 mm 4 m/S 744 mmHg 78%
    18:00 +18°C° 0.1 mm 3 m/S 744 mmHg 82%
    19:00 +17°C° 0.1 mm 3 m/S 744 mmHg 86%
    20:00 +17°C° 0.1 mm 3 m/S 744 mmHg 89%
    21:00 +16°C° 0.1 mm 3 m/S 745 mmHg 92%
    22:00 +15°C° 0.1 mm 2 m/S 745 mmHg 95%
    23:00 +15°C° 0.5 mm 2 m/S 745 mmHg 95%

    23 Mai, Donnerstag

    Zeit Temperatur Niederschläge Wind Luftdruck Luftfeuchtigkeit
    00:00 +15°C° 0.5 mm 2 m/S 745 mmHg 95%
    01:00 +14°C° 0.5 mm 2 m/S 745 mmHg 96%
    02:00 +14°C° 0.1 mm 2 m/S 745 mmHg 96%
    03:00 +14°C° 0.1 mm 2 m/S 745 mmHg 95%
    04:00 +14°C° 0.1 mm 2 m/S 745 mmHg 95%
    05:00 +14°C° 0 mm 2 m/S 746 mmHg 93%
    06:00 +15°C° 0 mm 1 m/S 746 mmHg 91%
    07:00 +16°C° 0 mm 1 m/S 746 mmHg 89%
    08:00 +16°C° 0.1 mm 1 m/S 746 mmHg 87%
    09:00 +18°C° 0.1 mm 1 m/S 747 mmHg 85%
    10:00 +19°C° 0.1 mm 1 m/S 747 mmHg 83%
    11:00 +18°C° 0.8 mm 2 m/S 747 mmHg 82%
    12:00 +19°C° 0.8 mm 3 m/S 748 mmHg 81%
    13:00 +20°C° 0.8 mm 5 m/S 748 mmHg 80%
    14:00 +19°C° 0.7 mm 5 m/S 748 mmHg 82%
    15:00 +17°C° 0.7 mm 6 m/S 748 mmHg 83%
    16:00 +16°C° 0.7 mm 6 m/S 749 mmHg 84%
    17:00 +15°C° 0 mm 6 m/S 749 mmHg 84%
    18:00 +14°C° 0 mm 6 m/S 749 mmHg 85%
    19:00 +13°C° 0 mm 6 m/S 749 mmHg 85%
    20:00 +12°C° 0 mm 5 m/S 750 mmHg 83%
    21:00 +10°C° 0 mm 5 m/S 750 mmHg 81%
    22:00 +10°C° 0 mm 5 m/S 750 mmHg 80%
    23:00 +10°C° 0 mm 5 m/S 750 mmHg 79%

    24 Mai, Freitag

    Zeit Temperatur Niederschläge Wind Luftdruck Luftfeuchtigkeit
    00:00 +10°C° 0 mm 5 m/S 750 mmHg 79%
    01:00 +10°C° 0 mm 5 m/S 751 mmHg 78%
    02:00 +10°C° 0 mm 4 m/S 750 mmHg 79%
    03:00 +10°C° 0 mm 4 m/S 750 mmHg 81%
    04:00 +10°C° 0 mm 4 m/S 750 mmHg 82%
    05:00 +10°C° 0 mm 4 m/S 750 mmHg 80%
    06:00 +11°C° 0 mm 4 m/S 750 mmHg 79%
    07:00 +12°C° 0 mm 4 m/S 750 mmHg 78%
    08:00 +14°C° 0 mm 4 m/S 750 mmHg 72%
    09:00 +15°C° 0 mm 4 m/S 750 mmHg 66%
    10:00 +18°C° 0 mm 4 m/S 750 mmHg 60%
    11:00 +19°C° 0 mm 4 m/S 750 mmHg 58%
    12:00 +19°C° 0 mm 4 m/S 749 mmHg 55%
    13:00 +20°C° 0 mm 4 m/S 749 mmHg 53%
    14:00 +20°C° 0 mm 3 m/S 749 mmHg 54%
    15:00 +20°C° 0 mm 3 m/S 749 mmHg 54%
    16:00 +19°C° 0 mm 3 m/S 748 mmHg 55%
    17:00 +18°C° 0 mm 2 m/S 748 mmHg 60%
    18:00 +17°C° 0 mm 2 m/S 748 mmHg 64%
    19:00 +16°C° 0 mm 2 m/S 748 mmHg 69%
    20:00 +15°C° 0 mm 2 m/S 748 mmHg 73%
    21:00 +14°C° 0 mm 2 m/S 748 mmHg 78%
    22:00 +13°C° 0 mm 2 m/S 748 mmHg 82%
    23:00 +12°C° 0 mm 2 m/S 748 mmHg 84%

    25 Mai, Samstag

    Zeit Temperatur Niederschläge Wind Luftdruck Luftfeuchtigkeit
    00:00 +10°C° 0 mm 2 m/S 748 mmHg 87%
    01:00 +10°C° 0 mm 2 m/S 748 mmHg 89%
    02:00 +10°C° 0 mm 2 m/S 748 mmHg 89%
    03:00 +10°C° 0 mm 1 m/S 748 mmHg 89%
    04:00 +10°C° 0 mm 1 m/S 748 mmHg 89%
    05:00 +12°C° 0 mm 1 m/S 748 mmHg 82%
    06:00 +13°C° 0 mm 1 m/S 748 mmHg 75%
    07:00 +15°C° 0 mm 1 m/S 748 mmHg 68%
    08:00 +18°C° 0 mm 1 m/S 748 mmHg 63%
    09:00 +19°C° 0 mm 1 m/S 748 mmHg 59%
    10:00 +20°C° 0 mm 1 m/S 748 mmHg 54%
    11:00 +20°C° 0 mm 2 m/S 748 mmHg 51%
    12:00 +21°C° 0 mm 2 m/S 748 mmHg 48%
    13:00 +21°C° 0 mm 2 m/S 748 mmHg 46%
    14:00 +21°C° 0 mm 2 m/S 748 mmHg 46%
    15:00 +21°C° 0 mm 2 m/S 748 mmHg 47%
    16:00 +21°C° 0 mm 3 m/S 748 mmHg 48%
    17:00 +20°C° 0 mm 2 m/S 748 mmHg 53%
    18:00 +19°C° 0 mm 2 m/S 748 mmHg 58%
    19:00 +18°C° 0 mm 1 m/S 748 mmHg 64%
    20:00 +16°C° 0 mm 1 m/S 748 mmHg 66%
    21:00 +15°C° 0 mm 1 m/S 748 mmHg 69%
    22:00 +13°C° 0 mm 0 m/S 749 mmHg 72%
    23:00 +13°C° 0 mm 0 m/S 749 mmHg 74%
    Mehr zeigen